STARLINK-1502, 45764

Orbit data source: Space-Track

STARLINK-1502, 45764 is a payload satellite owned by SpaceX/Seattle (US) in LEO that was launched on Sat, 13 Jun 2020 UTC via an FALCON 9 launch vehicle from the Air Force Eastern Test Range (AFETR). Payloads include a variety of satellites, spacecraft, and rockets equipped with specific instruments for various scientific and technological missions. These include communications satellites like Starlink; space stations such as the ISS; scientific satellites like the Hubble; Earth observation satellites from companies like Planet Labs, Umbra, and HawkEye 360; GPS; miniature CubeSats for education and research; and military/defense satellites.

Loading next visibility...
STARLINK-1502 details
Identifier
45764, 2020-038AL
Orbit
LEO
Last TLE update10 hours ago
Origin
Flag of USSpaceX/Seattle (US)
ManufacturerSpaceX/Seattle
MissionOperational Commercial Communications
Bus & MotorSTARLINK, Unknown motor
Mass260 kg wet, ~248 kg dry
Launch date (UTC)
2020-06-13 (5 years ago)
Launch vehicle
FALCON 9
Launch site
Air Force Eastern Test Range (AFETR)
Object type
Payload
Rocket body
Debris
Shape & HBRBox + 1 Pan, 8.86 m
Radar Cross Section13.562 m², Large (>1 m²)

Expand to show TLE details & history

TLE from 10 hours ago
0 STARLINK-1502
1 45764U 20038AL  24361.06804119  .00010582  00000-0  72810-3 0  9991
2 45764  53.0557  25.6680 0001447  72.6284 287.4863 15.06405927251291
Epoch: 2024-12-26T01:37Z
Definitive object data (Epoch: 2024-12-26T01:37:58.758Z)
Latitude-0.00005°
Longitude-93.87961°
Altitude547.772 km
Speed7.589 km/s
True Right ascension01h 42m 40s
True Declination0° 00' 00"
Sunlit
Object was in daylight at TLE epoch
Visualization TLE readout
Latitude52.71063°
Longitude5.09407°
Altitude552.681 km
Speed7.592 km/s
Apparent Right ascension02h 51m 06s
Apparent Declination24° 05' 57"
Sunlit
Object is in full shadow
Visualization observer readout
Local Sidereal Time10:58:10
Azimuth308.69° NW
Elevation-6.119°
Doppler factor1
Orbital elements
Apogee altitude548.466 km
Perigee altitude546.462 km
Semi-major axis6,925.601 km
Eccentricity0.0001447
Inclination53.0557°
RAAN25.668°
Arg. of periapsis72.6284°
True anomaly287.47048°
Mean anomaly287.4863°
Eccentric anomaly287.47839°
Mean motion3.7658 °/min
BSTAR0.0007281
Orbital period95.6 mins
Loading maneuver chart data...

STARLINK-1502 Visibility forecast

Observer location: undefined°, undefined

Span
Click to sort rows by Start time (UTC) header in descending order
Start Az.
Max El. time (UTC)
Max El. Az.
Max El.
End time (UTC)
End Az.
7 mins2024-12-26 11:41:48.217Z306.995° NW2024-12-26 11:44:48.217Z269.105° W43.969°2024-12-26 11:48:48.217Z135.513° SSE
4 mins2024-12-27 03:16:48.217Z150.919° SSE2024-12-27 03:17:48.217Z132.023° SE18.197°2024-12-27 03:20:48.217Z83.085° E
6 mins2024-12-27 04:54:48.217Z250.504° W2024-12-27 04:56:48.217Z295.75° NW39.451°2024-12-27 05:00:48.217Z42.768° NE
4 mins2024-12-27 06:35:48.217Z315.212° NNW2024-12-27 06:37:48.217Z350.581° N16.446°2024-12-27 06:39:48.217Z21.772° NNE
5 mins2024-12-27 09:56:48.217Z341.437° N2024-12-27 09:58:48.217Z22.378° NNE24.009°2024-12-27 10:01:48.217Z79.243° E
|